Weather History for KFAY - June, 2014

Change the Weather History Date:

Sunday, June 8, 2014

  Actual Average Record
Temperature  
Mean Temperature 76 °F 77 °F  
Max Temperature 89 °F 87 °F 101 °F (2008)
Min Temperature 62 °F 66 °F 47 °F (1977)
Degree Days  
Heating Degree Days 0 0  
Month to date heating degree days 0 0  
Since 1 June heating degree days 0 0  
Since 1 July heating degree days 2941 2732  
Cooling Degree Days 11 12  
Month to date cooling degree days 91 88  
Year to date cooling degree days 457 372  
Since 1 June cooling degree days 91 88  
Growing Degree Days 24 (Base 50)    
Moisture  
Dew Point 62 °F    
Average Humidity 67    
Maximum Humidity 93    
Minimum Humidity 40    
Precipitation  
Precipitation 0.00 in 0.14 in 1.30 in (1985)
Month to date precipitation 0.00 1.22  
Year to date precipitation 18.45 16.89  
Sea Level Pressure  
Sea Level Pressure 29.94 in    
Wind  
Wind Speed 9 mph (SSE)    
Max Wind Speed 17 mph    
Max Gust Speed 24 mph    
Visibility 8 miles    
Events      
T = Trace of Precipitation, MM = Missing Value Source: NWS Daily Summary

Daily Weather History Graph

Daily Weather History Graph

Search for Another Location

Airport or City:

Trip Planner

Search our weather history database for the weather conditions in past years. The results will help you decide how hot, cold, wet, or windy it might be!

Date:

Astronomy

Jun. 08, 2014 Rise Set
Actual Time 6:01 AM EDT 8:28 PM EDT
Civil Twilight 5:31 AM EDT 8:57 PM EDT
Nautical Twilight 4:55 AM EDT 9:34 PM EDT
Astronomical Twilight 4:15 AM EDT 10:14 PM EDT
Moon 3:54 PM EDT (6/8) 2:42 AM EDT (6/8)
Length of Visible Light 15h 25m
Length of Day
14h 26m
Waxing Gibbous, 77% of the Moon is Illuminated
Jun 8
Waxing Gibbous
Jun 13
Full
Jun 19
Last Quarter
Jun 27
New
Jul 5
First Quarter

Hourly Weather History & Observations

Time (EDT) Temp. Heat Index Dew Point Humidity Pressure Visibility Wind Dir Wind Speed Gust Speed Precip Events Conditions
12:53 AM 70.0 °F - 63.0 °F 78% 29.98 in 10.0 mi SW 5.8 mph - N/A   Clear
1:53 AM 69.1 °F - 63.0 °F 81% 29.98 in 10.0 mi SE 3.5 mph - N/A   Clear
2:53 AM 66.0 °F - 62.1 °F 87% 29.95 in 9.0 mi East 3.5 mph - N/A   Clear
3:53 AM 64.9 °F - 61.0 °F 87% 29.95 in 10.0 mi SSW 3.5 mph - N/A   Clear
4:53 AM 64.9 °F - 62.1 °F 90% 29.95 in 8.0 mi SSE 4.6 mph - N/A   Clear
5:53 AM 62.1 °F - 60.1 °F 93% 29.96 in 5.0 mi Calm Calm - N/A   Clear
6:15 AM 63.0 °F - 61.0 °F 93% 29.99 in 2.5 mi Calm Calm - N/A   Clear
6:23 AM 62.1 °F - 61.0 °F 96% 29.99 in 1.0 mi ENE 3.5 mph - N/A   Clear
6:46 AM 63.0 °F - 61.0 °F 93% 29.99 in 2.5 mi East 5.8 mph - N/A   Clear
6:53 AM 63.0 °F - 61.0 °F 93% 29.97 in 3.0 mi ESE 3.5 mph - N/A   Clear
7:53 AM 70.0 °F - 64.0 °F 81% 29.98 in 10.0 mi SSE 5.8 mph - N/A   Clear
8:53 AM 75.0 °F - 64.0 °F 69% 29.98 in 10.0 mi SSE 8.1 mph - N/A   Clear
9:53 AM 79.0 °F - 64.0 °F 60% 29.97 in 10.0 mi SSE 11.5 mph - N/A   Clear
10:53 AM 82.0 °F 83.0 °F 62.1 °F 51% 29.96 in 10.0 mi SSE 9.2 mph - N/A   Clear
11:53 AM 84.0 °F 84.0 °F 60.1 °F 44% 29.97 in 10.0 mi South 5.8 mph - N/A   Clear
12:53 PM 87.1 °F 87.0 °F 61.0 °F 41% 29.94 in 10.0 mi SSE 13.8 mph 20.7 mph N/A   Partly Cloudy
1:53 PM 86.0 °F 86.1 °F 61.0 °F 43% 29.91 in 10.0 mi SE 13.8 mph 21.9 mph N/A   Partly Cloudy
2:53 PM 87.1 °F 87.5 °F 62.1 °F 43% 29.91 in 10.0 mi South 15.0 mph - N/A   Mostly Cloudy
4:53 PM 82.9 °F 83.2 °F 60.1 °F 46% 29.91 in 10.0 mi South 16.1 mph - N/A   Mostly Cloudy
5:53 PM 81.0 °F 81.6 °F 60.1 °F 49% 29.89 in 10.0 mi South 16.1 mph - N/A   Partly Cloudy
6:53 PM 81.0 °F 81.6 °F 60.1 °F 49% 29.88 in 10.0 mi South 12.7 mph - N/A   Clear
7:53 PM 78.1 °F - 60.1 °F 54% 29.88 in 10.0 mi South 9.2 mph - N/A   Clear
8:53 PM 75.9 °F - 61.0 °F 60% 29.89 in 10.0 mi South 8.1 mph - N/A   Overcast
9:53 PM 73.9 °F - 62.1 °F 66% 29.90 in 10.0 mi SSE 5.8 mph - N/A   Partly Cloudy
10:53 PM 73.9 °F - 62.1 °F 66% 29.91 in 10.0 mi SSE 6.9 mph - N/A   Overcast
11:53 PM 73.0 °F - 63.0 °F 71% 29.91 in 10.0 mi SE 5.8 mph - N/A   Overcast